• In Netherlands
  • List of Countries
  • For 7 days
  • Water Temperature
  • Satellite Maps
  • Weather Map
  • Weather Widgets
  • user-avatar
    Login

    Hourly Weather Pinsk

    Today, 26 June, Monday

    Time Temperature Precipitation Wind Pressure Humidity
    00:00 +19°C° 0.2 mm 2 mps 744 mmHg 77%
    01:00 +19°C° 0.2 mm 2 mps 744 mmHg 80%
    02:00 +18°C° 0.2 mm 2 mps 744 mmHg 83%
    03:00 +18°C° 0.1 mm 2 mps 743 mmHg 84%
    04:00 +18°C° 0.1 mm 2 mps 743 mmHg 86%
    05:00 +18°C° 0.1 mm 2 mps 743 mmHg 87%
    06:00 +19°C° 0 mm 2 mps 743 mmHg 83%
    07:00 +20°C° 0 mm 2 mps 744 mmHg 80%
    08:00 +21°C° 0 mm 2 mps 744 mmHg 76%
    09:00 +24°C° 0.1 mm 3 mps 744 mmHg 69%
    10:00 +25°C° 0.1 mm 3 mps 744 mmHg 61%
    11:00 +26°C° 0.1 mm 4 mps 744 mmHg 53%
    12:00 +26°C° 0.2 mm 4 mps 744 mmHg 52%
    13:00 +27°C° 0.2 mm 4 mps 744 mmHg 52%
    14:00 +27°C° 0.2 mm 4 mps 744 mmHg 51%
    15:00 +26°C° 0.1 mm 4 mps 744 mmHg 51%
    16:00 +26°C° 0.1 mm 4 mps 744 mmHg 51%
    17:00 +26°C° 0.1 mm 4 mps 744 mmHg 51%
    18:00 +24°C° 0 mm 3 mps 744 mmHg 58%
    19:00 +22°C° 0 mm 3 mps 744 mmHg 64%
    20:00 +20°C° 0 mm 2 mps 744 mmHg 71%
    21:00 +19°C° 0 mm 2 mps 744 mmHg 75%
    22:00 +18°C° 0 mm 2 mps 745 mmHg 79%
    23:00 +17°C° 0 mm 2 mps 745 mmHg 83%

    Tomorrow, 27 June, Tuesday

    Time Temperature Precipitation Wind Pressure Humidity
    00:00 +16°C° 0 mm 2 mps 745 mmHg 87%
    01:00 +15°C° 0 mm 2 mps 746 mmHg 91%
    02:00 +14°C° 0 mm 2 mps 746 mmHg 95%
    03:00 +14°C° 0 mm 1 mps 747 mmHg 94%
    04:00 +13°C° 0 mm 1 mps 747 mmHg 94%
    05:00 +13°C° 0 mm 1 mps 747 mmHg 93%
    06:00 +15°C° 0 mm 1 mps 747 mmHg 83%
    07:00 +16°C° 0 mm 1 mps 748 mmHg 73%
    08:00 +19°C° 0 mm 1 mps 748 mmHg 62%
    09:00 +20°C° 0 mm 2 mps 748 mmHg 55%
    10:00 +21°C° 0 mm 2 mps 748 mmHg 48%
    11:00 +24°C° 0 mm 2 mps 748 mmHg 41%
    12:00 +24°C° 0 mm 3 mps 748 mmHg 40%
    13:00 +25°C° 0 mm 3 mps 747 mmHg 38%
    14:00 +26°C° 0 mm 3 mps 747 mmHg 37%
    15:00 +26°C° 0 mm 2 mps 747 mmHg 38%
    16:00 +26°C° 0 mm 2 mps 747 mmHg 38%
    17:00 +26°C° 0 mm 2 mps 747 mmHg 39%
    18:00 +24°C° 0 mm 2 mps 747 mmHg 50%
    19:00 +22°C° 0 mm 1 mps 747 mmHg 60%
    20:00 +20°C° 0 mm 1 mps 747 mmHg 70%
    21:00 +19°C° 0 mm 1 mps 747 mmHg 69%
    22:00 +18°C° 0 mm 1 mps 747 mmHg 68%
    23:00 +16°C° 0 mm 1 mps 747 mmHg 67%

    Day after tomorrow, 28 June, Wednesday

    Time Temperature Precipitation Wind Pressure Humidity
    00:00 +16°C° 0 mm 1 mps 747 mmHg 69%
    01:00 +15°C° 0 mm 1 mps 747 mmHg 71%
    02:00 +15°C° 0 mm 1 mps 748 mmHg 73%
    03:00 +15°C° 0 mm 1 mps 748 mmHg 75%
    04:00 +15°C° 0 mm 1 mps 748 mmHg 77%
    05:00 +15°C° 0 mm 1 mps 748 mmHg 79%
    06:00 +18°C° 0 mm 1 mps 748 mmHg 73%
    07:00 +19°C° 0 mm 2 mps 748 mmHg 66%
    08:00 +21°C° 0 mm 2 mps 748 mmHg 60%
    09:00 +24°C° 0 mm 2 mps 747 mmHg 56%
    10:00 +26°C° 0 mm 2 mps 747 mmHg 51%
    11:00 +28°C° 0 mm 2 mps 747 mmHg 47%
    12:00 +29°C° 0 mm 2 mps 747 mmHg 45%
    13:00 +30°C° 0 mm 3 mps 746 mmHg 44%
    14:00 +31°C° 0 mm 3 mps 746 mmHg 42%
    15:00 +31°C° 0.1 mm 3 mps 746 mmHg 43%
    16:00 +30°C° 0.1 mm 3 mps 745 mmHg 45%
    17:00 +30°C° 0.1 mm 3 mps 745 mmHg 47%
    18:00 +29°C° 0 mm 3 mps 745 mmHg 55%
    19:00 +27°C° 0 mm 2 mps 745 mmHg 62%
    20:00 +25°C° 0 mm 2 mps 745 mmHg 70%
    21:00 +24°C° 0 mm 2 mps 745 mmHg 69%
    22:00 +22°C° 0 mm 3 mps 745 mmHg 69%
    23:00 +22°C° 0 mm 3 mps 745 mmHg 68%

    29 June, Thursday

    Time Temperature Precipitation Wind Pressure Humidity
    00:00 +21°C° 0 mm 3 mps 744 mmHg 69%
    01:00 +21°C° 0 mm 3 mps 744 mmHg 69%
    02:00 +21°C° 0 mm 3 mps 744 mmHg 70%
    03:00 +21°C° 0 mm 3 mps 744 mmHg 72%
    04:00 +21°C° 0 mm 3 mps 744 mmHg 75%
    05:00 +20°C° 0 mm 3 mps 743 mmHg 77%
    06:00 +22°C° 0 mm 4 mps 743 mmHg 72%
    07:00 +25°C° 0 mm 4 mps 743 mmHg 67%
    08:00 +27°C° 0 mm 4 mps 743 mmHg 62%
    09:00 +28°C° 0 mm 5 mps 742 mmHg 56%
    10:00 +30°C° 0 mm 5 mps 742 mmHg 51%
    11:00 +33°C° 0 mm 5 mps 742 mmHg 45%
    12:00 +34°C° 0 mm 6 mps 742 mmHg 41%
    13:00 +35°C° 0 mm 6 mps 741 mmHg 38%
    14:00 +36°C° 0 mm 6 mps 741 mmHg 35%
    15:00 +36°C° 0 mm 6 mps 741 mmHg 37%
    16:00 +35°C° 0 mm 6 mps 740 mmHg 38%
    17:00 +35°C° 0 mm 6 mps 740 mmHg 40%
    18:00 +33°C° 0.3 mm 5 mps 740 mmHg 51%
    19:00 +29°C° 0.3 mm 5 mps 740 mmHg 62%
    20:00 +26°C° 0.3 mm 5 mps 740 mmHg 73%
    21:00 +25°C° 1.4 mm 4 mps 740 mmHg 80%
    22:00 +24°C° 1.4 mm 3 mps 740 mmHg 87%
    23:00 +21°C° 1.4 mm 3 mps 740 mmHg 94%

    30 June, Friday

    Time Temperature Precipitation Wind Pressure Humidity
    00:00 +21°C° 0.8 mm 3 mps 740 mmHg 93%
    01:00 +21°C° 0.8 mm 4 mps 740 mmHg 93%
    02:00 +21°C° 0.8 mm 4 mps 740 mmHg 92%
    03:00 +21°C° 1 mm 4 mps 740 mmHg 92%
    04:00 +21°C° 1 mm 4 mps 739 mmHg 93%
    05:00 +20°C° 1 mm 4 mps 739 mmHg 93%
    06:00 +22°C° 0 mm 5 mps 739 mmHg 81%
    07:00 +23°C° 0 mm 5 mps 740 mmHg 69%
    08:00 +24°C° 0 mm 6 mps 740 mmHg 57%
    09:00 +26°C° 0.1 mm 6 mps 740 mmHg 53%
    10:00 +27°C° 0.1 mm 7 mps 741 mmHg 49%
    11:00 +27°C° 0.1 mm 7 mps 741 mmHg 45%
    12:00 +27°C° 0 mm 6 mps 741 mmHg 45%
    13:00 +27°C° 0 mm 6 mps 741 mmHg 46%
    14:00 +27°C° 0 mm 6 mps 741 mmHg 46%
    15:00 +26°C° 0.1 mm 5 mps 742 mmHg 50%
    16:00 +26°C° 0.1 mm 5 mps 742 mmHg 53%
    17:00 +25°C° 0.1 mm 5 mps 742 mmHg 57%
    18:00 +23°C° 0.3 mm 4 mps 742 mmHg 64%
    19:00 +21°C° 0.3 mm 3 mps 743 mmHg 72%
    20:00 +19°C° 0.3 mm 3 mps 743 mmHg 79%
    21:00 +18°C° 0 mm 3 mps 743 mmHg 78%
    22:00 +18°C° 0 mm 3 mps 743 mmHg 78%
    23:00 +17°C° 0 mm 3 mps 744 mmHg 77%

    1 July, Saturday

    Time Temperature Precipitation Wind Pressure Humidity
    00:00 +17°C° 0 mm 3 mps 744 mmHg 74%
    01:00 +17°C° 0 mm 3 mps 744 mmHg 71%
    02:00 +17°C° 0 mm 3 mps 744 mmHg 68%
    03:00 +17°C° 0 mm 3 mps 744 mmHg 68%
    04:00 +17°C° 0 mm 3 mps 745 mmHg 68%
    05:00 +17°C° 0 mm 4 mps 745 mmHg 69%
    06:00 +18°C° 0 mm 4 mps 745 mmHg 63%
    07:00 +20°C° 0 mm 5 mps 745 mmHg 57%
    08:00 +21°C° 0 mm 5 mps 745 mmHg 51%
    09:00 +23°C° 0 mm 5 mps 745 mmHg 47%
    10:00 +25°C° 0 mm 5 mps 745 mmHg 42%
    11:00 +27°C° 0 mm 5 mps 744 mmHg 37%
    12:00 +27°C° 0 mm 5 mps 744 mmHg 37%
    13:00 +28°C° 0 mm 5 mps 744 mmHg 38%
    14:00 +28°C° 0 mm 5 mps 744 mmHg 38%
    15:00 +28°C° 0 mm 5 mps 744 mmHg 40%
    16:00 +28°C° 0 mm 4 mps 743 mmHg 42%
    17:00 +27°C° 0 mm 4 mps 743 mmHg 44%
    18:00 +26°C° 0 mm 3 mps 743 mmHg 51%
    19:00 +24°C° 0 mm 3 mps 743 mmHg 59%
    20:00 +21°C° 0 mm 2 mps 743 mmHg 66%
    21:00 +21°C° 0 mm 2 mps 743 mmHg 67%
    22:00 +20°C° 0 mm 2 mps 743 mmHg 67%
    23:00 +19°C° 0 mm 2 mps 743 mmHg 68%
    Show more